Flag for U.S.A. Weather past 2 weeks in Oceanside, California, U.S.A.

Now
73 °F

Passing clouds.


Feels Like: 76 °F
Forecast: 64 / 71 °F
Wind: 7 mph from West

Location: Oceanside Weather Reporting Station

Current Time: Jul 4, 2015 at 4:40:13 PM

Latest Report: Jul 4, 2015 at 3:52 PM


Visibility: 10 mi

Pressure: 29.88 "Hg

Humidity: 64%

Dew point: 60 °F

Location of OceansideLocation

Historic Weather in Oceanside — Graph

°F

Oceanside temperature yesterday

Maximum temperature yesterday: 75 °F (at 11:52 AM)
Minimum temperature yesterday: 67 °F (at 12:52 AM)
Average temperature yesterday: 70 °F

Past Weeks' High & Low Weather Summary

 TemperatureHumidityPressure
High88 °F (Jun 30, 6:52 PM)97% (Jun 24, 4:54 AM)30.02 "Hg (Jun 24, 4:54 AM)
Low58 °F (Jun 24, 4:54 AM)48% (Jun 30, 6:52 PM)29.78 "Hg (Jun 30, 6:52 PM)
Average70 °F77%29.90 "Hg
* Reported Jun 19 3:52 PM — Jul 4 3:00 PM, Oceanside, Weather by CustomWeather, © 2015

Note: Actual official high and low records may vary slightly from our data, if they occured in-between our weather recording intervals... More about our weather records

Advertising

Oceanside weather history for previous 24 hours

 ConditionsComfort  
Time TempWeatherWind HumidityBarometerVisibility
3:00 PM
Sat, Jul 4
73 °FScattered clouds.10 mph64%29.89 "Hg10 mi
1:52 PM74 °FSunny.13 mph62%29.90 "Hg10 mi
12:52 PM72 °FOvercast.12 mph68%29.91 "Hg10 mi
11:52 AM72 °FOvercast.6 mph68%29.90 "Hg10 mi
10:52 AM70 °FOvercast.5 mph73%29.91 "Hg10 mi
9:52 AM69 °FOvercast.No wind76%29.89 "Hg9 mi
8:52 AM68 °FOvercast.5 mph78%29.89 "Hg9 mi
7:52 AM67 °FOvercast.No wind81%29.88 "Hg9 mi
6:52 AM67 °FOvercast.No wind81%29.87 "Hg9 mi
5:52 AM67 °FOvercast.No wind81%29.86 "Hg10 mi
4:52 AM67 °FOvercast.No wind81%29.85 "Hg10 mi
3:52 AM67 °FOvercast.No wind81%29.86 "Hg10 mi
2:52 AM67 °FOvercast.No wind81%29.86 "Hg10 mi
1:52 AM68 °FOvercast.No wind78%29.88 "Hg10 mi
12:52 AM67 °FOvercast.6 mph81%29.88 "Hg10 mi
11:52 PM
Fri, Jul 3
68 °FOvercast.5 mph78%29.88 "Hg10 mi
10:52 PM68 °FOvercast.5 mph78%29.89 "Hg10 mi
9:52 PM68 °FPassing clouds.5 mph78%29.88 "Hg10 mi
8:52 PM69 °FOvercast.7 mph79%29.86 "Hg10 mi
7:52 PM68 °FPartly sunny.8 mph82%29.85 "Hg10 mi
6:52 PM70 °FOvercast.6 mph79%29.83 "Hg10 mi
5:52 PM71 °FPartly sunny.9 mph76%29.83 "Hg10 mi
4:52 PM73 °FPassing clouds.14 mph71%29.84 "Hg10 mi
4:03 PM73 °FPartly sunny.7 mph69%29.85 "Hg10 mi
Weather by CustomWeather, © 2015

See weather overviewHow to use our weather pages